TimeEST,TemperatureF,Dew PointF,Humidity,Sea Level PressureIn,VisibilityMPH,Wind Direction,Wind SpeedMPH,Gust SpeedMPH,PrecipitationIn,Events,Conditions,WindDirDegrees,DateUTC
12:56 AM,23.0,19.0,85,30.29,10.0,Calm,Calm,-,N/A,,Partly Cloudy,0,2012-12-07 05:56:00
1:09 AM,24.8,19.4,80,30.29,9.0,Calm,Calm,-,N/A,,Mostly Cloudy,0,2012-12-07 06:09:00
1:56 AM,27.0,23.0,85,30.29,10.0,Calm,Calm,-,N/A,,Overcast,0,2012-12-07 06:56:00
2:56 AM,28.9,25.0,85,30.28,10.0,Calm,Calm,-,N/A,,Overcast,0,2012-12-07 07:56:00
3:56 AM,30.9,24.1,76,30.26,10.0,Calm,Calm,-,N/A,,Overcast,0,2012-12-07 08:56:00
4:56 AM,32.0,25.0,75,30.24,10.0,Calm,Calm,-,N/A,,Overcast,0,2012-12-07 09:56:00
5:56 AM,33.1,27.0,78,30.24,10.0,WNW,3.5,-,N/A,,Overcast,290,2012-12-07 10:56:00
6:56 AM,33.1,27.0,78,30.23,10.0,Calm,Calm,-,N/A,,Overcast,0,2012-12-07 11:56:00
7:56 AM,35.1,28.0,76,30.24,10.0,Calm,Calm,-,N/A,,Overcast,0,2012-12-07 12:56:00
8:31 AM,37.4,30.2,75,30.24,10.0,Calm,Calm,-,N/A,,Scattered Clouds,0,2012-12-07 13:31:00
8:56 AM,39.0,30.0,70,30.24,10.0,Calm,Calm,-,N/A,,Scattered Clouds,0,2012-12-07 13:56:00
9:56 AM,43.0,32.0,65,30.23,10.0,Calm,Calm,-,N/A,,Overcast,0,2012-12-07 14:56:00
10:56 AM,46.0,34.0,63,30.19,10.0,SSE,3.5,-,N/A,,Overcast,160,2012-12-07 15:56:00
11:56 AM,48.0,37.0,66,30.17,10.0,South,9.2,-,0.00,Rain,Light Rain,170,2012-12-07 16:56:00
12:56 PM,48.0,39.0,71,30.15,10.0,South,4.6,-,0.00,Rain,Light Rain,180,2012-12-07 17:56:00
1:56 PM,46.9,41.0,80,30.13,9.0,Calm,Calm,-,0.01,Rain,Light Rain,0,2012-12-07 18:56:00
2:56 PM,46.9,42.1,83,30.12,10.0,SSW,4.6,-,0.02,Rain,Light Rain,210,2012-12-07 19:56:00
3:31 PM,46.4,42.8,87,30.11,10.0,SSW,4.6,-,0.01,Rain,Light Rain,210,2012-12-07 20:31:00
3:56 PM,46.0,43.0,89,30.11,10.0,SSW,4.6,-,0.01,,Overcast,200,2012-12-07 20:56:00
4:05 PM,46.4,42.8,87,30.11,10.0,SSW,4.6,-,N/A,,Overcast,200,2012-12-07 21:05:00
4:56 PM,46.0,43.0,89,30.10,10.0,Calm,Calm,-,N/A,,Overcast,0,2012-12-07 21:56:00
5:56 PM,46.0,43.0,89,30.10,10.0,SSW,4.6,-,N/A,,Overcast,200,2012-12-07 22:56:00
6:41 PM,46.4,42.8,87,30.09,10.0,South,3.5,-,0.01,,Overcast,180,2012-12-07 23:41:00
6:56 PM,46.0,43.0,89,30.09,10.0,South,3.5,-,0.01,,Overcast,190,2012-12-07 23:56:00
7:56 PM,46.9,43.0,86,30.09,9.0,SW,5.8,-,0.01,,Overcast,220,2012-12-08 00:56:00
8:53 PM,46.4,44.6,93,30.08,10.0,SW,3.5,-,0.00,,Overcast,230,2012-12-08 01:53:00
8:56 PM,46.9,44.1,90,30.09,10.0,SW,3.5,-,0.00,,Overcast,230,2012-12-08 01:56:00
9:27 PM,46.4,44.6,93,30.08,10.0,SW,3.5,-,N/A,,Overcast,220,2012-12-08 02:27:00
9:56 PM,46.9,45.0,93,30.07,10.0,Calm,Calm,-,N/A,,Overcast,0,2012-12-08 02:56:00
10:04 PM,46.4,44.6,93,30.08,10.0,Calm,Calm,-,N/A,,Overcast,0,2012-12-08 03:04:00
10:56 PM,46.9,45.0,93,30.06,7.0,Calm,Calm,-,0.00,,Overcast,0,2012-12-08 03:56:00
11:56 PM,46.9,45.0,93,30.04,3.0,Calm,Calm,-,0.00,,Overcast,0,2012-12-08 04:56:00